Vertical_Velocity
-1 0 3 0 -1 -0 -2 0 -2 -1 -3 1 3 -0 -2 -3 0 -2 -3 -3 -2 -1 0 -1 2 -3 1 4 8 2 9 -7 -8 -2 -2 -1 -1 3 1 5 -4 -3 2 -5 1
-0 -1 1 1 -2 0 -1 -0 3 -3 -3 -4 2 0 -9 -0 -0 -2 -0 -6 -2 -1 -3 -2 1 -2 0 2 8 -3 2 1 7 2 -1 -4 1 4 2 5 7 2 -2 -2 3
-1 -1 -0 2 -1 2 -1 -3 -2 -5 -7 -1 3 3 -6 -2 -1 -4 -1 -4 -3 -4 -9 -2 -0 2 0 3 -9 -6 -7 1 4 1 -1 -3 -1 1 2 3 4 3 2 2 3
1 -2 2 2 -3 1 -1 -4 1 -2 -3 -2 -2 -2 -5 -7 0 1 -2 -6 -0 -4 -1 -4 -3 1 4 -0 1 -7 -9 3 -1 -0 0 -0 -0 0 1 -1 0 -1 1 -1 -0
1 -2 2 3 -3 3 0 -4 -1 -1 -3 -1 -3 0 -4 -5 -3 -4 -1 -4 -2 -1 -3 -4 -3 -4 -2 -4 1 4 1 -1 -1 -1 1 2 3 -2 -0 0 -1 -1 0 -1 -2
1 -2 0 2 -1 2 0 -4 -2 -0 -3 2 -1 -3 -4 -3 2 -4 -5 -4 -5 -2 -3 -3 0 -2 -2 1 -2 -2 -3 -5 1 -2 1 -1 -3 -3 -1 4 3 -5 -3 -5 -3
2 -2 -1 2 -1 3 -0 -2 -3 -2 -2 1 -1 -4 -1 -2 -2 -2 -2 -2 -4 -1 -1 -6 -3 -1 1 1 0 -1 -1 1 1 2 -4 -6 -3 -0 -1 2 1 2 0 -1 -1
1 -1 -3 3 -1 3 0 -1 -1 -2 1 1 1 -4 -2 2 -1 -3 -1 -1 -1 -1 -3 -1 -2 -5 -4 -2 -3 -3 -5 -6 -4 -1 -0 -5 10 -10 -5 -2 -5 -1 -1 -4 2
1 0 -1 -0 1 2 0 0 -2 -4 -2 0 -3 -0 1 -2 5 2 -3 -3 -4 -3 -4 -1 2 1 -1 -2 -3 -3 -2 -0 1 -0 -4 -4 2 4 1 -1 -3 -3 -5 -4 -5
1 -1 -0 -1 0 2 -1 1 -3 -3 -3 -2 -3 -5 0 -6 3 1 3 -3 -5 -2 -2 -1 -1 -3 -4 -0 -2 2 -1 0 -0 -2 -1 1 3 2 0 -1 0 0 -2 -4 -6
-0 -0 0 0 1 -1 -3 2 1 -4 -5 -1 -2 -2 -4 -4 -4 4 -1 -2 -1 -3 -2 -2 -2 -1 0 -0 -0 -4 -3 0 2 2 2 4 1 -1 -4 -1 -2 -2 -3 -3 -3
1 1 1 1 -2 -2 -0 -1 -5 -1 -4 1 -3 -2 -3 -2 -7 3 -0 0 1 -1 -2 -3 -2 -2 -1 -2 -2 -3 -3 -2 -3 -2 -3 -6 1 0 0 2 2 1 2 5 5
0 1 1 1 -2 -1 1 -1 3 -1 -1 2 -4 -1 -4 -4 -2 0 -0 0 -2 -1 1 0 -3 -0 -1 -1 -2 -2 -1 -2 -1 0 -2 -2 -5 -4 -1 -0 -3 -1 -2 -4 -2
-0 2 0 1 -0 -0 -2 0 2 3 1 -2 -1 -4 -1 -0 -4 -3 -3 -2 -2 -2 -1 -1 0 -1 -1 -2 -2 -1 -1 -1 -1 -2 -5 2 -12 -15 10 -2 3 -4 -1 1 -0
-0 2 0 1 1 -1 1 -1 -0 2 5 0 -1 -0 -3 -4 1 -0 -1 -3 -4 -3 -1 -1 -1 -1 -1 -2 -2 -4 -6 -3 -3 -2 1 2 3 -11 -1 -11 -10 -2 -2 -0 -4
3 1 2 1 -1 0 -1 -2 -1 2 0 2 -0 -0 1 -3 -5 0 -0 -1 -1 0 -1 -1 -1 -1 0 -1 -2 0 0 -2 -2 -3 0 -4 4 -17 -1 10 -3 -9 -3 -5 -3
3 3 -0 -0 1 -1 -2 -2 -3 -2 4 -1 2 2 -2 -3 -3 -0 0 -1 -0 -5 -2 -3 -1 -2 -3 -2 0 -0 1 -0 -3 1 -1 0 2 -5 4 -4 2 -4 -6 -3 -4
3 0 6 3 -4 -4 -2 -5 1 -1 -1 2 1 2 -1 1 -1 -2 0 -1 -1 -1 -3 -4 -2 -1 -2 -3 -2 -1 -2 -1 -2 -3 -8 3 1 5 1 0 -4 0 -1 -4 -4
3 2 0 -2 -1 -2 -1 -1 -0 1 -4 1 0 1 0 0 0 -3 -1 -1 -3 -2 -4 -3 -2 -2 -2 -2 -2 1 2 -1 -1 0 0 1 -8 -9 1 -0 -1 -3 2 -1 -2
5 4 3 2 0 -0 -2 2 -1 3 -5 -0 4 -1 -2 0 2 -7 0 1 -1 -0 -1 -2 -1 -2 -2 -3 -0 -1 -2 -4 -1 -5 -1 5 6 -23 -5 2 -2 -3 -3 -2 -1
1 -0 -3 -1 0 -1 3 1 -0 1 -3 -3 1 -1 2 -2 -1 -1 1 2 1 -0 -1 1 -0 -4 -3 -3 -2 -3 -3 -1 -2 0 -4 -2 -5 0 -5 -4 -7 -5 -4 0 -2
-5 1 0 0 -3 1 -2 4 1 -1 -0 -0 -2 6 -5 4 -1 -3 -6 5 0 1 1 -1 -2 0 -4 -4 -2 -2 -3 -1 -3 1 -1 -3 9 -0 4 -1 -1 0 -5 -3 -3
-1 2 -1 3 0 2 0 6 -2 5 -6 -2 -2 1 1 -1 -3 -0 3 -6 -0 -2 -1 1 1 -3 0 -1 0 -1 -2 -1 -2 -0 1 -2 -14 -5 3 1 -3 2 3 -2 -1
4 -5 -3 -3 2 2 -1 4 1 -1 -2 -2 1 1 1 1 -1 0 1 0 -2 -0 1 1 1 -0 -4 -0 -3 -4 -1 -3 -0 -2 1 -1 7 -17 -12 -11 -8 -9 -7 -5 -3
-2 -3 10 9 3 6 1 1 -2 -2 3 -3 -0 3 -0 -0 -0 -1 -2 2 1 -3 -0 1 0 0 -1 -6 1 2 -1 -2 -3 -2 -0 -5 -2 -8 -3 -4 -3 -5 -4 -3 -3
2 3 6 6 -0 -4 -1 2 1 1 3 1 1 0 -0 0 -2 1 -0 -1 -1 -2 -1 -1 -1 0 -1 1 -2 -1 -7 -1 3 3 -1 -1 2 0 1 -2 -1 -1 -2 -4 -3
9 6 -4 0 3 0 3 3 5 -0 1 1 2 -2 -1 -4 6 -0 0 0 -0 -1 2 0 0 -1 -1 -1 -1 -4 -1 -3 -5 -7 -3 3 -1 1 -0 -2 -2 -2 -3 -0 1
Height
5838 5839 5841 5843 5843 5842 5840 5838 5837 5836 5833 5831 5828 5826 5825 5824 5822 5823 5826 5826 5826 5827 5828 5831 5833 5837 5841 5846 5851 5853 5852 5848 5855 5862 5862 5866 5870 5872 5874 5877 5881 5884 5886 5887 5889
5835 5835 5837 5841 5842 5842 5839 5837 5837 5836 5835 5831 5830 5828 5826 5826 5825 5828 5829 5830 5828 5828 5828 5829 5832 5836 5841 5846 5850 5852 5844 5849 5860 5861 5861 5864 5869 5872 5875 5876 5878 5881 5884 5885 5886
5833 5834 5834 5838 5840 5840 5838 5836 5837 5836 5836 5833 5831 5830 5828 5828 5828 5829 5830 5830 5830 5830 5829 5830 5831 5836 5840 5844 5846 5849 5852 5856 5858 5859 5861 5863 5867 5871 5873 5875 5876 5878 5880 5882 5882
5830 5833 5832 5835 5839 5839 5837 5836 5837 5837 5837 5834 5833 5832 5830 5831 5831 5830 5832 5833 5833 5833 5833 5831 5833 5836 5842 5845 5848 5851 5853 5857 5857 5859 5862 5865 5867 5869 5871 5873 5873 5874 5875 5876 5878
5826 5830 5831 5832 5837 5838 5837 5836 5837 5836 5837 5835 5834 5833 5832 5831 5831 5832 5834 5834 5834 5835 5837 5837 5838 5841 5843 5845 5849 5851 5854 5856 5857 5860 5863 5864 5865 5869 5870 5871 5871 5872 5872 5873 5874
5823 5827 5829 5831 5835 5836 5835 5835 5837 5836 5837 5836 5836 5834 5833 5832 5831 5833 5835 5836 5836 5836 5838 5840 5840 5842 5843 5847 5849 5852 5855 5857 5859 5860 5862 5864 5865 5867 5868 5868 5869 5869 5870 5870 5870
5820 5824 5826 5828 5832 5834 5833 5834 5836 5835 5835 5835 5836 5835 5833 5833 5833 5834 5836 5838 5839 5839 5840 5841 5842 5844 5846 5849 5850 5852 5855 5857 5859 5860 5861 5862 5863 5864 5865 5866 5866 5866 5866 5867 5867
5815 5820 5824 5826 5829 5832 5833 5833 5835 5835 5835 5835 5836 5835 5834 5833 5834 5836 5838 5841 5841 5843 5844 5844 5845 5847 5849 5851 5853 5855 5856 5857 5858 5859 5860 5861 5863 5861 5862 5862 5862 5863 5862 5862 5862
5811 5816 5820 5823 5827 5830 5832 5832 5833 5834 5834 5835 5836 5836 5837 5833 5833 5836 5841 5844 5845 5846 5847 5848 5849 5850 5851 5853 5855 5855 5856 5857 5858 5858 5858 5858 5859 5859 5858 5858 5858 5858 5857 5857 5857
5806 5811 5815 5819 5823 5827 5830 5830 5832 5834 5835 5834 5836 5838 5838 5837 5835 5837 5840 5843 5846 5847 5849 5850 5851 5852 5853 5854 5854 5855 5855 5855 5856 5857 5856 5855 5855 5854 5854 5853 5853 5852 5851 5850 5850
5799 5806 5811 5816 5820 5823 5825 5828 5831 5834 5833 5834 5836 5837 5838 5838 5837 5838 5842 5844 5846 5847 5848 5850 5851 5852 5853 5853 5853 5853 5853 5853 5853 5852 5852 5850 5851 5851 5849 5849 5847 5847 5846 5845 5843
5794 5800 5806 5811 5816 5819 5822 5826 5827 5832 5834 5833 5834 5836 5838 5839 5839 5838 5842 5844 5847 5847 5848 5849 5850 5850 5850 5851 5851 5851 5850 5851 5851 5849 5848 5845 5845 5844 5844 5843 5842 5840 5839 5838 5837
5789 5795 5800 5807 5812 5816 5819 5822 5824 5828 5831 5833 5834 5836 5838 5839 5839 5840 5842 5843 5845 5846 5846 5848 5849 5849 5849 5849 5848 5848 5847 5847 5847 5846 5844 5842 5837 5838 5839 5836 5834 5833 5830 5828 5826
5783 5789 5796 5801 5809 5811 5815 5819 5822 5825 5828 5832 5832 5835 5838 5838 5841 5841 5842 5844 5845 5845 5845 5846 5846 5846 5846 5846 5846 5845 5845 5844 5843 5842 5840 5840 5834 5825 5827 5827 5826 5824 5822 5819 5817
5778 5784 5790 5797 5803 5808 5812 5815 5818 5822 5826 5829 5830 5832 5835 5839 5839 5841 5842 5843 5843 5844 5845 5844 5843 5843 5843 5843 5843 5844 5842 5840 5839 5837 5835 5833 5834 5818 5818 5819 5813 5812 5811 5808 5805
5772 5778 5786 5791 5798 5803 5806 5810 5815 5819 5821 5825 5827 5829 5833 5836 5837 5837 5840 5842 5841 5841 5841 5842 5842 5841 5840 5840 5839 5837 5836 5835 5833 5832 5830 5827 5828 5816 5815 5815 5810 5804 5802 5799 5796
5765 5772 5779 5787 5793 5797 5802 5807 5812 5814 5819 5822 5823 5825 5829 5832 5833 5834 5836 5837 5839 5838 5839 5839 5838 5837 5836 5835 5833 5832 5830 5828 5827 5825 5823 5821 5820 5814 5813 5808 5803 5800 5795 5791 5787
5759 5767 5775 5780 5786 5792 5798 5804 5808 5812 5815 5817 5820 5822 5825 5829 5830 5831 5832 5833 5834 5834 5834 5835 5835 5833 5831 5830 5828 5826 5825 5823 5820 5818 5815 5811 5808 5807 5805 5802 5797 5792 5787 5783 5779
5753 5762 5767 5773 5781 5788 5794 5800 5804 5809 5812 5814 5816 5819 5823 5825 5827 5826 5828 5829 5830 5830 5830 5829 5829 5828 5827 5825 5824 5821 5819 5817 5815 5812 5810 5809 5801 5796 5798 5795 5790 5785 5781 5777 5773
5748 5757 5763 5768 5775 5783 5790 5796 5800 5805 5807 5809 5812 5816 5818 5820 5822 5822 5823 5825 5824 5824 5824 5824 5823 5822 5821 5820 5818 5816 5814 5812 5808 5805 5801 5801 5798 5790 5789 5786 5782 5778 5774 5769 5765
5742 5750 5755 5760 5768 5777 5786 5791 5796 5800 5804 5806 5809 5811 5814 5816 5817 5816 5819 5819 5819 5819 5818 5817 5818 5817 5816 5814 5812 5810 5808 5805 5802 5799 5795 5792 5790 5785 5783 5779 5774 5770 5766 5762 5758
5736 5744 5750 5755 5765 5774 5781 5786 5791 5796 5801 5802 5804 5806 5809 5811 5812 5813 5814 5815 5814 5813 5813 5812 5811 5810 5810 5807 5804 5803 5800 5797 5794 5793 5789 5786 5786 5780 5779 5774 5769 5765 5760 5756 5752
5731 5740 5744 5753 5762 5770 5776 5782 5785 5792 5796 5797 5800 5801 5804 5805 5807 5808 5810 5809 5809 5808 5806 5805 5804 5803 5802 5800 5797 5795 5793 5789 5787 5785 5783 5779 5775 5773 5770 5767 5763 5759 5755 5750 5746
5727 5730 5738 5747 5757 5764 5770 5776 5780 5784 5791 5793 5794 5795 5797 5800 5800 5802 5803 5803 5803 5802 5800 5798 5797 5796 5794 5792 5791 5789 5785 5782 5780 5778 5777 5773 5770 5764 5762 5758 5754 5751 5747 5743 5740
5719 5727 5739 5746 5754 5759 5765 5769 5773 5778 5785 5786 5788 5788 5792 5794 5794 5795 5797 5795 5796 5794 5793 5792 5791 5789 5787 5784 5782 5781 5777 5775 5773 5770 5770 5766 5763 5759 5757 5753 5749 5745 5741 5737 5733
5715 5726 5734 5741 5746 5751 5757 5762 5768 5772 5779 5781 5781 5782 5784 5787 5787 5789 5790 5789 5789 5787 5786 5785 5784 5782 5779 5777 5774 5772 5768 5767 5768 5765 5763 5760 5757 5753 5751 5748 5744 5740 5736 5731 5727
5712 5720 5726 5734 5739 5745 5753 5757 5761 5765 5771 5773 5773 5775 5778 5780 5782 5781 5782 5781 5782 5780 5779 5778 5776 5774 5771 5770 5767 5766 5763 5760 5758 5756 5754 5753 5750 5746 5744 5741 5738 5733 5729 5725 5721